Weather History for KIFP - January, 2013

Change the Weather History Date:

Tuesday, January 8, 2013

  Actual Average Record
Temperature  
Mean Temperature 63 °F -  
Max Temperature 66 °F 62 °F 75 °F (2002)
Min Temperature 60 °F 46 °F 35 °F (1989)
Degree Days  
Heating Degree Days 2    
Growing Degree Days 13 (Base 50)    
Moisture  
Dew Point 26 °F    
Average Humidity 25    
Maximum Humidity 27    
Minimum Humidity 23    
Precipitation  
Precipitation 0.00 in - - ()
Sea Level Pressure  
Sea Level Pressure 30.13 in    
Wind  
Wind Speed 19 mph (North)    
Max Wind Speed 26 mph    
Max Gust Speed 31 mph    
Visibility 10 miles    
Events      
Averages and records for this station are not official NWS values.
T = Trace of Precipitation, MM = Missing Value Source: NWS Daily Summary

Daily Weather History Graph

Daily Weather History Graph

Search for Another Location

Airport or City:

Trip Planner

Search our weather history database for the weather conditions in past years. The results will help you decide how hot, cold, wet, or windy it might be!

Date:

Astronomy

Jan. 08, 2013 Rise Set
Actual Time 7:47 AM MST 5:43 PM MST
Civil Twilight 7:19 AM MST 6:11 PM MST
Nautical Twilight 6:47 AM MST 6:42 PM MST
Astronomical Twilight 6:17 AM MST 7:13 PM MST
Moon 4:25 AM MST (1/8) 2:49 PM MST (1/8)
Length of Visible Light 10h 51m
Length of Day
9h 56m
Waning Crescent, 13% of the Moon is Illuminated
Jan 8
Waning Crescent
Jan 11
New
Jan 18
First Quarter
Jan 26
Full
Feb 3
Last Quarter

Hourly Weather History & Observations

Time (MST) Temp. Dew Point Humidity Pressure Visibility Wind Dir Wind Speed Gust Speed Precip Events Conditions
4:15 PM 66.2 °F 26.6 °F 23% 30.09 in 10.0 mi NNW 19.6 mph 24.2 mph N/A   Clear
4:35 PM 66.2 °F 26.6 °F 23% 30.10 in 10.0 mi NNW 15.0 mph 23.0 mph N/A   Clear
4:55 PM 66.2 °F 26.6 °F 23% 30.10 in 10.0 mi NNW 16.1 mph - N/A   Clear
5:15 PM 66.2 °F 28.4 °F 24% 30.09 in 10.0 mi NNW 16.1 mph 20.7 mph N/A   Clear
5:35 PM 64.4 °F 28.4 °F 26% 30.09 in 10.0 mi NNW 17.3 mph - N/A   Clear
5:55 PM 64.4 °F 26.6 °F 24% 30.09 in 10.0 mi North 18.4 mph 25.3 mph N/A   Clear
6:55 PM 62.6 °F 26.6 °F 26% 30.11 in 10.0 mi North 17.3 mph - N/A   Clear
7:15 PM 62.6 °F 26.6 °F 26% 30.11 in 10.0 mi North 23.0 mph 28.8 mph N/A   Clear
7:35 PM 62.6 °F 24.8 °F 24% 30.11 in 10.0 mi North 18.4 mph 29.9 mph N/A   Clear
7:55 PM 62.6 °F 24.8 °F 24% 30.13 in 10.0 mi NNE 17.3 mph - N/A   Clear
8:15 PM 62.6 °F 24.8 °F 24% 30.13 in 10.0 mi NNE 17.3 mph - N/A   Clear
8:35 PM 60.8 °F 24.8 °F 25% 30.14 in 10.0 mi NNE 12.7 mph - N/A   Clear
8:55 PM 62.6 °F 24.8 °F 24% 30.15 in 10.0 mi NNE 17.3 mph - N/A   Clear
9:15 PM 62.6 °F 24.8 °F 24% 30.14 in 10.0 mi North 21.9 mph 25.3 mph N/A   Clear
9:35 PM 60.8 °F 24.8 °F 25% 30.15 in 10.0 mi North 13.8 mph - N/A   Clear
9:55 PM 62.6 °F 24.8 °F 24% 30.15 in 10.0 mi NNE 18.4 mph 24.2 mph N/A   Clear
10:15 PM 62.6 °F 24.8 °F 24% 30.15 in 10.0 mi NNE 21.9 mph 26.5 mph N/A   Clear
10:35 PM 62.6 °F 24.8 °F 24% 30.16 in 10.0 mi NNE 19.6 mph 26.5 mph N/A   Clear
10:55 PM 60.8 °F 24.8 °F 25% 30.15 in 10.0 mi NNE 24.2 mph 28.8 mph N/A   Clear
11:15 PM 60.8 °F 24.8 °F 25% 30.15 in 10.0 mi NNE 25.3 mph - N/A   Clear
11:35 PM 62.6 °F 26.6 °F 26% 30.15 in 10.0 mi NNE 26.5 mph 29.9 mph N/A   Clear
11:55 PM 60.8 °F 26.6 °F 27% 30.15 in 10.0 mi North 25.3 mph 31.1 mph N/A   Clear